Time,TemperatureF,DewpointF,PressureIn,WindDirection,WindDirectionDegrees,WindSpeedMPH,WindSpeedGustMPH,Humidity,HourlyPrecipIn,Conditions,Clouds,dailyrainin,SoftwareType,DateUTC
2013-01-16 00:00:00,41.5,30.2,30.38,NNE,14,0.0,0.0,64,0.00,,,0.00,Wunderground v.1.15,2013-01-16 08:00:00,
2013-01-16 00:10:00,42.1,30.4,30.38,North,6,0.0,0.0,63,0.00,,,0.00,Wunderground v.1.15,2013-01-16 08:10:00,
2013-01-16 00:15:00,42.3,30.6,30.38,NW,311,0.0,0.0,63,0.00,,,0.00,Wunderground v.1.15,2013-01-16 08:15:00,
2013-01-16 00:20:00,42.2,30.5,30.38,NNW,342,0.0,0.0,63,0.00,,,0.00,Wunderground v.1.15,2013-01-16 08:20:00,
2013-01-16 00:25:00,41.9,30.2,30.38,NNE,30,0.0,0.0,63,0.00,,,0.00,Wunderground v.1.15,2013-01-16 08:25:00,
2013-01-16 00:30:00,41.9,30.2,30.38,NE,52,0.0,1.0,63,0.00,,,0.00,Wunderground v.1.15,2013-01-16 08:30:00,
2013-01-16 00:40:00,42.1,30.0,30.38,NE,56,0.0,0.0,62,0.00,,,0.00,Wunderground v.1.15,2013-01-16 08:40:00,
2013-01-16 00:45:00,42.5,30.4,30.38,NNE,32,0.0,0.0,62,0.00,,,0.00,Wunderground v.1.15,2013-01-16 08:45:00,
2013-01-16 00:50:00,42.7,30.2,30.38,ESE,110,0.0,1.0,61,0.00,,,0.00,Wunderground v.1.15,2013-01-16 08:50:00,
2013-01-16 00:55:00,42.8,29.9,30.38,North,359,1.0,1.0,60,0.00,,,0.00,Wunderground v.1.15,2013-01-16 08:55:00,
2013-01-16 01:00:00,43.0,30.1,30.38,East,99,1.0,1.0,60,0.00,,,0.00,Wunderground v.1.15,2013-01-16 09:00:00,
2013-01-16 01:10:00,43.0,30.1,30.38,NNE,18,0.0,0.0,60,0.00,,,0.00,Wunderground v.1.15,2013-01-16 09:10:00,
2013-01-16 01:15:00,42.7,30.2,30.38,NNW,333,0.0,0.0,61,0.00,,,0.00,Wunderground v.1.15,2013-01-16 09:15:00,
2013-01-16 01:20:00,42.8,29.9,30.38,North,351,0.0,0.0,60,0.00,,,0.00,Wunderground v.1.15,2013-01-16 09:20:00,
2013-01-16 01:30:00,42.8,30.3,30.38,North,8,0.0,0.0,61,0.00,,,0.00,Wunderground v.1.15,2013-01-16 09:30:00,
2013-01-16 01:35:00,42.6,30.5,30.38,North,360,0.0,1.0,62,0.00,,,0.00,Wunderground v.1.15,2013-01-16 09:35:00,
2013-01-16 01:40:00,42.4,30.3,30.38,NNW,331,0.0,1.0,62,0.00,,,0.00,Wunderground v.1.15,2013-01-16 09:40:00,
2013-01-16 01:45:00,42.1,30.0,30.38,North,11,0.0,1.0,62,0.00,,,0.00,Wunderground v.1.15,2013-01-16 09:45:00,
2013-01-16 01:50:00,42.3,30.2,30.38,NNE,26,0.0,0.0,62,0.00,,,0.00,Wunderground v.1.15,2013-01-16 09:50:00,
2013-01-16 01:55:00,42.7,30.6,30.38,North,356,0.0,1.0,62,0.00,,,0.00,Wunderground v.1.15,2013-01-16 09:55:00,
2013-01-16 02:00:00,42.8,30.3,30.38,NNW,330,0.0,0.0,61,0.00,,,0.00,Wunderground v.1.15,2013-01-16 10:00:00,
2013-01-16 02:10:00,42.7,30.6,30.38,West,281,0.0,0.0,62,0.00,,,0.00,Wunderground v.1.15,2013-01-16 10:10:00,
2013-01-16 02:15:00,42.9,30.0,30.37,North,358,0.0,0.0,60,0.00,,,0.00,Wunderground v.1.15,2013-01-16 10:15:00,
2013-01-16 02:20:00,43.2,30.2,30.37,North,360,0.0,0.0,60,0.00,,,0.00,Wunderground v.1.15,2013-01-16 10:20:00,
2013-01-16 02:25:00,42.9,30.4,30.37,North,355,0.0,0.0,61,0.00,,,0.00,Wunderground v.1.15,2013-01-16 10:25:00,
2013-01-16 02:30:00,42.8,30.3,30.37,North,6,0.0,0.0,61,0.00,,,0.00,Wunderground v.1.15,2013-01-16 10:30:00,
2013-01-16 02:35:00,42.7,30.6,30.37,NE,34,0.0,0.0,62,0.00,,,0.00,Wunderground v.1.15,2013-01-16 10:35:00,
2013-01-16 02:40:00,42.5,30.4,30.37,NNE,29,0.0,0.0,62,0.00,,,0.00,Wunderground v.1.15,2013-01-16 10:40:00,
2013-01-16 02:45:00,42.5,30.0,30.37,NW,316,0.0,0.0,61,0.00,,,0.00,Wunderground v.1.15,2013-01-16 10:45:00,
2013-01-16 02:55:00,42.5,30.4,30.37,North,360,0.0,0.0,62,0.00,,,0.00,Wunderground v.1.15,2013-01-16 10:55:00,
2013-01-16 03:05:00,42.7,30.2,30.38,North,349,1.0,1.0,61,0.00,,,0.00,Wunderground v.1.15,2013-01-16 11:05:00,
2013-01-16 03:10:00,42.5,30.4,30.38,North,356,0.0,1.0,62,0.00,,,0.00,Wunderground v.1.15,2013-01-16 11:10:00,
2013-01-16 03:20:00,42.2,30.1,30.37,NNW,333,0.0,1.0,62,0.00,,,0.00,Wunderground v.1.15,2013-01-16 11:20:00,
2013-01-16 03:25:00,42.3,29.8,30.37,NNE,13,0.0,0.0,61,0.00,,,0.00,Wunderground v.1.15,2013-01-16 11:25:00,
2013-01-16 03:30:00,42.7,29.8,30.37,NNE,18,0.0,0.0,60,0.00,,,0.00,Wunderground v.1.15,2013-01-16 11:30:00,
2013-01-16 03:35:00,42.9,30.0,30.37,NW,316,0.0,0.0,60,0.00,,,0.00,Wunderground v.1.15,2013-01-16 11:35:00,
2013-01-16 03:45:00,43.1,30.1,30.37,NW,324,0.0,1.0,60,0.00,,,0.00,Wunderground v.1.15,2013-01-16 11:45:00,
2013-01-16 03:50:00,43.1,30.1,30.37,WNW,284,0.0,1.0,60,0.00,,,0.00,Wunderground v.1.15,2013-01-16 11:50:00,
2013-01-16 03:55:00,43.1,30.1,30.37,NW,322,0.0,0.0,60,0.00,,,0.00,Wunderground v.1.15,2013-01-16 11:55:00,
2013-01-16 04:00:00,43.0,30.1,30.36,NNE,19,0.0,0.0,60,0.00,,,0.00,Wunderground v.1.15,2013-01-16 12:00:00,
2013-01-16 04:10:00,42.8,29.9,30.37,NNE,21,0.0,0.0,60,0.00,,,0.00,Wunderground v.1.15,2013-01-16 12:10:00,
2013-01-16 04:20:00,42.8,29.9,30.36,North,355,0.0,0.0,60,0.00,,,0.00,Wunderground v.1.15,2013-01-16 12:20:00,
2013-01-16 04:25:00,42.8,30.3,30.36,NW,311,0.0,0.0,61,0.00,,,0.00,Wunderground v.1.15,2013-01-16 12:25:00,
2013-01-16 04:30:00,42.7,30.2,30.36,North,357,0.0,0.0,61,0.00,,,0.00,Wunderground v.1.15,2013-01-16 12:30:00,
2013-01-16 04:35:00,42.6,30.1,30.36,NNW,345,0.0,0.0,61,0.00,,,0.00,Wunderground v.1.15,2013-01-16 12:35:00,
2013-01-16 04:45:00,42.6,30.1,30.35,NNW,331,0.0,0.0,61,0.00,,,0.00,Wunderground v.1.15,2013-01-16 12:45:00,
2013-01-16 04:50:00,42.8,29.9,30.35,NW,313,1.0,1.0,60,0.00,,,0.00,Wunderground v.1.15,2013-01-16 12:50:00,
2013-01-16 04:55:00,42.7,30.2,30.35,NNW,329,1.0,1.0,61,0.00,,,0.00,Wunderground v.1.15,2013-01-16 12:55:00,
2013-01-16 05:00:00,42.5,29.6,30.35,NNW,330,0.0,1.0,60,0.00,,,0.00,Wunderground v.1.15,2013-01-16 13:00:00,
2013-01-16 05:09:00,42.2,30.1,30.35,NNW,342,0.0,0.0,62,0.00,,,0.00,Wunderground v.1.15,2013-01-16 13:09:00,
2013-01-16 05:15:00,42.3,30.2,30.35,NNE,27,0.0,1.0,62,0.00,,,0.00,Wunderground v.1.15,2013-01-16 13:15:00,
2013-01-16 05:20:00,42.0,29.9,30.35,NW,322,0.0,0.0,62,0.00,,,0.00,Wunderground v.1.15,2013-01-16 13:20:00,
2013-01-16 05:25:00,41.8,30.1,30.35,NW,324,0.0,1.0,63,0.00,,,0.00,Wunderground v.1.15,2013-01-16 13:25:00,
2013-01-16 05:30:00,41.8,29.7,30.35,NW,319,0.0,0.0,62,0.00,,,0.00,Wunderground v.1.15,2013-01-16 13:30:00,
2013-01-16 05:35:00,41.7,30.0,30.35,NNW,336,0.0,0.0,63,0.00,,,0.00,Wunderground v.1.15,2013-01-16 13:35:00,
2013-01-16 05:40:00,41.9,29.8,30.34,WNW,294,0.0,1.0,62,0.00,,,0.00,Wunderground v.1.15,2013-01-16 13:40:00,
2013-01-16 05:50:00,42.2,30.1,30.34,NW,308,0.0,0.0,62,0.00,,,0.00,Wunderground v.1.15,2013-01-16 13:50:00,
2013-01-16 05:55:00,42.0,29.9,30.35,NE,36,0.0,0.0,62,0.00,,,0.00,Wunderground v.1.15,2013-01-16 13:55:00,
2013-01-16 06:00:00,41.9,29.8,30.35,NNE,16,0.0,0.0,62,0.00,,,0.00,Wunderground v.1.15,2013-01-16 14:00:00,
2013-01-16 06:10:00,41.6,29.5,30.35,NE,50,0.0,0.0,62,0.00,,,0.00,Wunderground v.1.15,2013-01-16 14:10:00,
2013-01-16 06:15:00,41.9,29.8,30.35,North,356,0.0,0.0,62,0.00,,,0.00,Wunderground v.1.15,2013-01-16 14:15:00,
2013-01-16 06:20:00,42.4,29.9,30.35,NNW,330,0.0,0.0,61,0.00,,,0.00,Wunderground v.1.15,2013-01-16 14:20:00,
2013-01-16 06:30:00,42.6,29.7,30.35,North,359,0.0,0.0,60,0.00,,,0.00,Wunderground v.1.15,2013-01-16 14:30:00,
2013-01-16 06:35:00,42.6,29.7,30.34,NE,50,0.0,0.0,60,0.00,,,0.00,Wunderground v.1.15,2013-01-16 14:35:00,
2013-01-16 06:40:00,42.8,29.9,30.34,NNE,23,0.0,0.0,60,0.00,,,0.00,Wunderground v.1.15,2013-01-16 14:40:00,
2013-01-16 06:45:00,42.7,29.8,30.34,NNW,342,0.0,0.0,60,0.00,,,0.00,Wunderground v.1.15,2013-01-16 14:45:00,
2013-01-16 06:50:00,42.6,29.7,30.34,NNW,345,0.0,0.0,60,0.00,,,0.00,Wunderground v.1.15,2013-01-16 14:50:00,
2013-01-16 06:55:00,42.4,29.5,30.34,North,4,0.0,0.0,60,0.00,,,0.00,Wunderground v.1.15,2013-01-16 14:55:00,
2013-01-16 07:00:00,42.4,29.9,30.34,NNW,340,0.0,0.0,61,0.00,,,0.00,Wunderground v.1.15,2013-01-16 15:00:00,
2013-01-16 07:10:00,42.5,29.6,30.34,North,360,0.0,0.0,60,0.00,,,0.00,Wunderground v.1.15,2013-01-16 15:10:00,
2013-01-16 07:15:00,42.6,29.7,30.34,NW,326,0.0,2.0,60,0.00,,,0.00,Wunderground v.1.15,2013-01-16 15:15:00,
2013-01-16 07:20:00,42.7,29.8,30.34,North,355,0.0,1.0,60,0.00,,,0.00,Wunderground v.1.15,2013-01-16 15:20:00,
2013-01-16 07:25:00,42.9,29.5,30.34,North,351,0.0,1.0,59,0.00,,,0.00,Wunderground v.1.15,2013-01-16 15:25:00,
2013-01-16 07:30:00,43.1,29.3,30.35,NNE,12,0.0,1.0,58,0.00,,,0.00,Wunderground v.1.15,2013-01-16 15:30:00,
2013-01-16 07:35:00,43.5,29.7,30.35,ENE,67,0.0,1.0,58,0.00,,,0.00,Wunderground v.1.15,2013-01-16 15:35:00,
2013-01-16 07:40:00,43.7,29.5,30.35,NNE,26,0.0,0.0,57,0.00,,,0.00,Wunderground v.1.15,2013-01-16 15:40:00,
2013-01-16 07:45:00,43.7,29.5,30.35,NNW,342,0.0,0.0,57,0.00,,,0.00,Wunderground v.1.15,2013-01-16 15:45:00,
2013-01-16 07:50:00,43.7,29.5,30.35,North,1,0.0,0.0,57,0.00,,,0.00,Wunderground v.1.15,2013-01-16 15:50:00,
2013-01-16 07:55:00,44.0,29.3,30.35,SSE,160,0.0,0.0,56,0.00,,,0.00,Wunderground v.1.15,2013-01-16 15:55:00,
2013-01-16 08:00:00,44.3,29.6,30.35,East,83,0.0,0.0,56,0.00,,,0.00,Wunderground v.1.15,2013-01-16 16:00:00,
2013-01-16 08:10:00,44.4,30.1,30.35,WNW,297,0.0,1.0,57,0.00,,,0.00,Wunderground v.1.15,2013-01-16 16:10:00,
2013-01-16 08:15:00,45.6,30.3,30.36,ESE,105,0.0,1.0,55,0.00,,,0.00,Wunderground v.1.15,2013-01-16 16:15:00,
2013-01-16 08:25:00,49.3,30.9,30.35,NW,324,0.0,0.0,49,0.00,,,0.00,Wunderground v.1.15,2013-01-16 16:25:00,
2013-01-16 08:35:00,50.8,33.8,30.35,East,79,0.0,1.0,52,0.00,,,0.00,Wunderground v.1.15,2013-01-16 16:35:00,
2013-01-16 08:40:00,51.4,32.3,30.35,ENE,77,0.0,0.0,48,0.00,,,0.00,Wunderground v.1.15,2013-01-16 16:40:00,
2013-01-16 08:45:00,51.9,33.8,30.35,East,86,0.0,0.0,50,0.00,,,0.00,Wunderground v.1.15,2013-01-16 16:45:00,
2013-01-16 08:55:00,52.4,34.8,30.35,ESE,103,0.0,0.0,51,0.00,,,0.00,Wunderground v.1.15,2013-01-16 16:55:00,
2013-01-16 09:00:00,53.2,32.4,30.36,ESE,112,0.0,0.0,45,0.00,,,0.00,Wunderground v.1.15,2013-01-16 17:00:00,
2013-01-16 09:10:00,55.4,35.5,30.36,ESE,119,0.0,0.0,47,0.00,,,0.00,Wunderground v.1.15,2013-01-16 17:10:00,
2013-01-16 09:15:00,55.7,36.3,30.36,East,100,0.0,0.0,48,0.00,,,0.00,Wunderground v.1.15,2013-01-16 17:15:00,
2013-01-16 09:20:00,55.3,36.5,30.36,ENE,76,0.0,2.0,49,0.00,,,0.00,Wunderground v.1.15,2013-01-16 17:20:00,
2013-01-16 09:30:00,53.8,36.1,30.35,ESE,113,2.0,2.0,51,0.00,,,0.00,Wunderground v.1.15,2013-01-16 17:30:00,
2013-01-16 09:35:00,53.8,36.6,30.35,East,94,2.0,2.0,52,0.00,,,0.00,Wunderground v.1.15,2013-01-16 17:35:00,
2013-01-16 09:40:00,54.2,37.4,30.35,SE,137,1.0,1.0,53,0.00,,,0.00,Wunderground v.1.15,2013-01-16 17:40:00,
2013-01-16 09:45:00,54.2,36.5,30.35,SE,142,2.0,2.0,51,0.00,,,0.00,Wunderground v.1.15,2013-01-16 17:45:00,
2013-01-16 09:50:00,53.7,37.0,30.35,ESE,115,2.0,2.0,53,0.00,,,0.00,Wunderground v.1.15,2013-01-16 17:50:00,
2013-01-16 09:55:00,54.0,36.8,30.35,SE,129,2.0,2.0,52,0.00,,,0.00,Wunderground v.1.15,2013-01-16 17:55:00,
2013-01-16 10:00:00,54.2,37.4,30.35,ESE,103,3.0,3.0,53,0.00,,,0.00,Wunderground v.1.15,2013-01-16 18:00:00,
2013-01-16 10:15:00,54.8,36.5,30.34,ESE,113,3.0,3.0,50,0.00,,,0.00,Wunderground v.1.15,2013-01-16 18:15:00,
2013-01-16 10:20:00,56.0,37.6,30.34,East,99,2.0,2.0,50,0.00,,,0.00,Wunderground v.1.15,2013-01-16 18:20:00,
2013-01-16 10:25:00,56.2,36.2,30.34,East,84,2.0,2.0,47,0.00,,,0.00,Wunderground v.1.15,2013-01-16 18:25:00,
2013-01-16 10:30:00,56.4,36.9,30.34,ESE,103,1.0,2.0,48,0.00,,,0.00,Wunderground v.1.15,2013-01-16 18:30:00,
2013-01-16 10:35:00,57.0,36.4,30.33,East,87,2.0,6.0,46,0.00,,,0.00,Wunderground v.1.15,2013-01-16 18:35:00,
2013-01-16 10:45:00,57.1,35.4,30.33,WSW,238,1.0,1.0,44,0.00,,,0.00,Wunderground v.1.15,2013-01-16 18:45:00,
2013-01-16 10:50:00,56.8,35.7,30.33,SW,235,0.0,1.0,45,0.00,,,0.00,Wunderground v.1.15,2013-01-16 18:50:00,
2013-01-16 10:55:00,56.8,36.2,30.33,SW,215,0.0,0.0,46,0.00,,,0.00,Wunderground v.1.15,2013-01-16 18:55:00,
2013-01-16 11:00:00,57.3,36.1,30.32,WSW,242,0.0,0.0,45,0.00,,,0.00,Wunderground v.1.15,2013-01-16 19:00:00,
2013-01-16 11:10:00,58.5,37.8,30.32,South,181,0.0,1.0,46,0.00,,,0.00,Wunderground v.1.15,2013-01-16 19:10:00,
2013-01-16 11:20:00,59.3,36.2,30.31,WNW,291,0.0,0.0,42,0.00,,,0.00,Wunderground v.1.15,2013-01-16 19:20:00,
2013-01-16 11:25:00,59.3,35.6,30.31,WSW,247,0.0,1.0,41,0.00,,,0.00,Wunderground v.1.15,2013-01-16 19:25:00,
2013-01-16 11:30:00,58.5,36.1,30.31,SW,235,0.0,0.0,43,0.00,,,0.00,Wunderground v.1.15,2013-01-16 19:30:00,
2013-01-16 11:35:00,58.5,36.1,30.30,WSW,250,0.0,0.0,43,0.00,,,0.00,Wunderground v.1.15,2013-01-16 19:35:00,
2013-01-16 11:40:00,59.2,36.7,30.30,NNW,338,0.0,0.0,43,0.00,,,0.00,Wunderground v.1.15,2013-01-16 19:40:00,
2013-01-16 11:50:00,58.9,36.4,30.30,WSW,242,0.0,1.0,43,0.00,,,0.00,Wunderground v.1.15,2013-01-16 19:50:00,
2013-01-16 11:55:00,58.6,36.7,30.29,West,278,0.0,1.0,44,0.00,,,0.00,Wunderground v.1.15,2013-01-16 19:55:00,
2013-01-16 12:00:00,58.9,37.6,30.29,SW,233,1.0,1.0,45,0.00,,,0.00,Wunderground v.1.15,2013-01-16 20:00:00,
2013-01-16 12:10:00,58.6,36.7,30.29,West,269,0.0,1.0,44,0.00,,,0.00,Wunderground v.1.15,2013-01-16 20:10:00,
2013-01-16 12:15:00,58.9,36.4,30.29,WSW,244,0.0,1.0,43,0.00,,,0.00,Wunderground v.1.15,2013-01-16 20:15:00,
2013-01-16 12:20:00,58.6,36.2,30.28,WSW,252,0.0,1.0,43,0.00,,,0.00,Wunderground v.1.15,2013-01-16 20:20:00,
2013-01-16 12:30:00,58.1,35.7,30.28,SW,233,1.0,1.0,43,0.00,,,0.00,Wunderground v.1.15,2013-01-16 20:30:00,
2013-01-16 12:35:00,57.9,35.5,30.28,WSW,238,0.0,1.0,43,0.00,,,0.00,Wunderground v.1.15,2013-01-16 20:35:00,
2013-01-16 12:40:00,58.3,35.3,30.28,West,264,0.0,0.0,42,0.00,,,0.00,Wunderground v.1.15,2013-01-16 20:40:00,
2013-01-16 12:45:00,58.5,34.9,30.28,WSW,248,0.0,1.0,41,0.00,,,0.00,Wunderground v.1.15,2013-01-16 20:45:00,
2013-01-16 12:50:00,58.2,35.2,30.27,West,266,1.0,1.0,42,0.00,,,0.00,Wunderground v.1.15,2013-01-16 20:50:00,
2013-01-16 12:55:00,58.3,35.3,30.27,WSW,248,1.0,1.0,42,0.00,,,0.00,Wunderground v.1.15,2013-01-16 20:55:00,
2013-01-16 13:00:00,58.6,35.6,30.27,West,265,0.0,0.0,42,0.00,,,0.00,Wunderground v.1.15,2013-01-16 21:00:00,
2013-01-16 13:10:00,58.7,35.0,30.26,WSW,247,1.0,1.0,41,0.00,,,0.00,Wunderground v.1.15,2013-01-16 21:10:00,
2013-01-16 13:15:00,59.1,35.4,30.26,West,277,1.0,1.0,41,0.00,,,0.00,Wunderground v.1.15,2013-01-16 21:15:00,
2013-01-16 13:20:00,59.6,35.2,30.26,WSW,242,0.0,0.0,40,0.00,,,0.00,Wunderground v.1.15,2013-01-16 21:20:00,
2013-01-16 13:25:00,59.9,35.5,30.26,West,281,0.0,0.0,40,0.00,,,0.00,Wunderground v.1.15,2013-01-16 21:25:00,
2013-01-16 13:30:00,60.0,35.6,30.26,West,269,0.0,0.0,40,0.00,,,0.00,Wunderground v.1.15,2013-01-16 21:30:00,
2013-01-16 13:40:00,60.1,36.3,30.26,NNW,345,0.0,0.0,41,0.00,,,0.00,Wunderground v.1.15,2013-01-16 21:40:00,
2013-01-16 13:45:00,60.3,35.2,30.25,WNW,290,0.0,0.0,39,0.00,,,0.00,Wunderground v.1.15,2013-01-16 21:45:00,
2013-01-16 13:55:00,59.3,34.3,30.25,West,280,1.0,1.0,39,0.00,,,0.00,Wunderground v.1.15,2013-01-16 21:55:00,
2013-01-16 14:00:00,60.2,35.8,30.25,WNW,293,0.0,0.0,40,0.00,,,0.00,Wunderground v.1.15,2013-01-16 22:00:00,
2013-01-16 14:10:00,59.8,34.1,30.25,WNW,300,0.0,1.0,38,0.00,,,0.00,Wunderground v.1.15,2013-01-16 22:10:00,
2013-01-16 14:15:00,59.6,34.6,30.25,WNW,287,1.0,1.0,39,0.00,,,0.00,Wunderground v.1.15,2013-01-16 22:15:00,
2013-01-16 14:20:00,59.2,34.9,30.25,WNW,290,1.0,1.0,40,0.00,,,0.00,Wunderground v.1.15,2013-01-16 22:20:00,
2013-01-16 14:25:00,58.8,35.7,30.25,WSW,250,1.0,1.0,42,0.00,,,0.00,Wunderground v.1.15,2013-01-16 22:25:00,
2013-01-16 14:30:00,59.0,35.9,30.25,West,262,1.0,1.0,42,0.00,,,0.00,Wunderground v.1.15,2013-01-16 22:30:00,
2013-01-16 14:35:00,59.4,35.1,30.25,WNW,302,0.0,1.0,40,0.00,,,0.00,Wunderground v.1.15,2013-01-16 22:35:00,
2013-01-16 14:40:00,59.2,35.5,30.25,West,264,0.0,0.0,41,0.00,,,0.00,Wunderground v.1.15,2013-01-16 22:40:00,
2013-01-16 14:45:00,59.1,36.6,30.25,West,278,0.0,1.0,43,0.00,,,0.00,Wunderground v.1.15,2013-01-16 22:45:00,
2013-01-16 14:55:00,59.6,35.9,30.25,NW,325,0.0,1.0,41,0.00,,,0.00,Wunderground v.1.15,2013-01-16 22:55:00,
2013-01-16 15:00:00,59.0,35.3,30.25,WSW,255,0.0,1.0,41,0.00,,,0.00,Wunderground v.1.15,2013-01-16 23:00:00,
2013-01-16 15:10:00,57.2,32.4,30.25,WNW,283,1.0,1.0,39,0.00,,,0.00,Wunderground v.1.15,2013-01-16 23:10:00,
2013-01-16 15:15:00,57.0,33.5,30.25,SW,229,1.0,1.0,41,0.00,,,0.00,Wunderground v.1.15,2013-01-16 23:15:00,
2013-01-16 15:20:00,57.2,34.9,30.25,SW,235,0.0,0.0,43,0.00,,,0.00,Wunderground v.1.15,2013-01-16 23:20:00,
2013-01-16 15:25:00,58.1,36.3,30.25,SW,226,0.0,0.0,44,0.00,,,0.00,Wunderground v.1.15,2013-01-16 23:25:00,
2013-01-16 15:35:00,58.9,34.0,30.25,NNE,19,0.0,0.0,39,0.00,,,0.00,Wunderground v.1.15,2013-01-16 23:35:00,
2013-01-16 15:40:00,58.9,34.0,30.25,NNE,27,0.0,0.0,39,0.00,,,0.00,Wunderground v.1.15,2013-01-16 23:40:00,
2013-01-16 15:45:00,58.6,33.7,30.25,ESE,121,0.0,1.0,39,0.00,,,0.00,Wunderground v.1.15,2013-01-16 23:45:00,
2013-01-16 15:50:00,57.4,37.3,30.25,ESE,109,1.0,2.0,47,0.00,,,0.00,Wunderground v.1.15,2013-01-16 23:50:00,
2013-01-16 15:55:00,55.7,36.8,30.25,ESE,108,2.0,2.0,49,0.00,,,0.00,Wunderground v.1.15,2013-01-16 23:55:00,
2013-01-16 16:00:00,55.4,38.1,30.25,ESE,108,2.0,2.0,52,0.00,,,0.00,Wunderground v.1.15,2013-01-17 00:00:00,
2013-01-16 16:10:00,54.5,39.1,30.25,ENE,69,2.0,2.0,56,0.00,,,0.00,Wunderground v.1.15,2013-01-17 00:10:00,
2013-01-16 16:15:00,54.6,38.3,30.24,East,82,2.0,2.0,54,0.00,,,0.00,Wunderground v.1.15,2013-01-17 00:15:00,
2013-01-16 16:20:00,54.5,38.7,30.25,East,79,2.0,2.0,55,0.00,,,0.00,Wunderground v.1.15,2013-01-17 00:20:00,
2013-01-16 16:25:00,54.0,39.1,30.24,East,84,1.0,2.0,57,0.00,,,0.00,Wunderground v.1.15,2013-01-17 00:25:00,
2013-01-16 16:30:00,54.1,39.6,30.24,ENE,76,1.0,1.0,58,0.00,,,0.00,Wunderground v.1.15,2013-01-17 00:30:00,
2013-01-16 16:35:00,54.5,40.0,30.25,ENE,75,1.0,2.0,58,0.00,,,0.00,Wunderground v.1.15,2013-01-17 00:35:00,
2013-01-16 16:40:00,54.1,39.2,30.25,ENE,72,1.0,1.0,57,0.00,,,0.00,Wunderground v.1.15,2013-01-17 00:40:00,
2013-01-16 16:45:00,53.9,39.0,30.25,East,80,1.0,1.0,57,0.00,,,0.00,Wunderground v.1.15,2013-01-17 00:45:00,
2013-01-16 16:55:00,54.1,38.7,30.25,East,84,0.0,1.0,56,0.00,,,0.00,Wunderground v.1.15,2013-01-17 00:55:00,
2013-01-16 17:05:00,53.5,37.7,30.25,ENE,78,0.0,0.0,55,0.00,,,0.00,Wunderground v.1.15,2013-01-17 01:05:00,
2013-01-16 17:10:00,53.0,37.7,30.25,ENE,78,0.0,1.0,56,0.00,,,0.00,Wunderground v.1.15,2013-01-17 01:10:00,
2013-01-16 17:15:00,52.5,37.7,30.25,NNE,32,0.0,1.0,57,0.00,,,0.00,Wunderground v.1.15,2013-01-17 01:15:00,
2013-01-16 17:20:00,52.0,37.7,30.25,NE,34,0.0,0.0,58,0.00,,,0.00,Wunderground v.1.15,2013-01-17 01:20:00,
2013-01-16 17:25:00,51.5,37.6,30.24,NE,34,0.0,0.0,59,0.00,,,0.00,Wunderground v.1.15,2013-01-17 01:25:00,
2013-01-16 17:30:00,51.3,37.4,30.25,NE,38,0.0,0.0,59,0.00,,,0.00,Wunderground v.1.15,2013-01-17 01:30:00,
2013-01-16 17:40:00,51.0,37.6,30.24,NNW,342,0.0,0.0,60,0.00,,,0.00,Wunderground v.1.15,2013-01-17 01:40:00,
2013-01-16 17:45:00,50.8,37.8,30.24,NNW,342,0.0,0.0,61,0.00,,,0.00,Wunderground v.1.15,2013-01-17 01:45:00,
2013-01-16 17:50:00,50.5,37.5,30.24,NNW,342,0.0,0.0,61,0.00,,,0.00,Wunderground v.1.15,2013-01-17 01:50:00,
2013-01-16 17:55:00,50.6,37.6,30.24,WSW,242,0.0,1.0,61,0.00,,,0.00,Wunderground v.1.15,2013-01-17 01:55:00,
2013-01-16 18:00:00,51.0,37.6,30.24,NE,50,0.0,0.0,60,0.00,,,0.00,Wunderground v.1.15,2013-01-17 02:00:00,
2013-01-16 18:10:00,51.4,37.1,30.24,NNW,345,0.0,0.0,58,0.00,,,0.00,Wunderground v.1.15,2013-01-17 02:10:00,
2013-01-16 18:20:00,51.0,37.2,30.24,NNE,12,0.0,0.0,59,0.00,,,0.00,Wunderground v.1.15,2013-01-17 02:20:00,
2013-01-16 18:25:00,51.0,36.7,30.24,WNW,302,0.0,0.0,58,0.00,,,0.00,Wunderground v.1.15,2013-01-17 02:25:00,
2013-01-16 18:30:00,50.9,37.1,30.24,East,94,0.0,0.0,59,0.00,,,0.00,Wunderground v.1.15,2013-01-17 02:30:00,
2013-01-16 18:35:00,50.7,36.9,30.23,NNW,335,0.0,0.0,59,0.00,,,0.00,Wunderground v.1.15,2013-01-17 02:35:00,
2013-01-16 18:40:00,50.6,36.4,30.23,North,359,0.0,0.0,58,0.00,,,0.00,Wunderground v.1.15,2013-01-17 02:40:00,
2013-01-16 18:45:00,50.4,36.6,30.23,NNW,346,0.0,0.0,59,0.00,,,0.00,Wunderground v.1.15,2013-01-17 02:45:00,
2013-01-16 18:55:00,50.3,36.5,30.23,North,353,0.0,0.0,59,0.00,,,0.00,Wunderground v.1.15,2013-01-17 02:55:00,
2013-01-16 19:00:00,50.2,36.4,30.23,North,349,0.0,0.0,59,0.00,,,0.00,Wunderground v.1.15,2013-01-17 03:00:00,
2013-01-16 19:10:00,50.2,36.0,30.23,NNW,339,0.0,0.0,58,0.00,,,0.00,Wunderground v.1.15,2013-01-17 03:10:00,
2013-01-16 19:20:00,50.4,35.7,30.23,NNW,327,0.0,0.0,57,0.00,,,0.00,Wunderground v.1.15,2013-01-17 03:20:00,
2013-01-16 19:25:00,50.6,35.5,30.23,NE,44,0.0,0.0,56,0.00,,,0.00,Wunderground v.1.15,2013-01-17 03:25:00,
2013-01-16 19:30:00,50.8,35.7,30.23,NNE,22,0.0,2.0,56,0.00,,,0.00,Wunderground v.1.15,2013-01-17 03:30:00,
2013-01-16 19:40:00,50.8,35.7,30.23,ESE,120,0.0,0.0,56,0.00,,,0.00,Wunderground v.1.15,2013-01-17 03:40:00,
2013-01-16 19:45:00,51.0,35.4,30.23,North,6,0.0,0.0,55,0.00,,,0.00,Wunderground v.1.15,2013-01-17 03:45:00,
2013-01-16 19:50:00,50.9,34.8,30.23,NNE,15,0.0,0.0,54,0.00,,,0.00,Wunderground v.1.15,2013-01-17 03:50:00,
2013-01-16 19:55:00,50.8,34.7,30.22,NNE,12,0.0,0.0,54,0.00,,,0.00,Wunderground v.1.15,2013-01-17 03:55:00,
2013-01-16 20:00:00,51.0,34.5,30.22,NE,43,0.0,1.0,53,0.00,,,0.00,Wunderground v.1.15,2013-01-17 04:00:00,
2013-01-16 20:10:00,51.4,33.9,30.22,NNE,28,1.0,1.0,51,0.00,,,0.00,Wunderground v.1.15,2013-01-17 04:10:00,
2013-01-16 20:15:00,51.5,34.4,30.22,North,8,1.0,1.0,52,0.00,,,0.00,Wunderground v.1.15,2013-01-17 04:15:00,
2013-01-16 20:20:00,51.6,34.5,30.22,NNE,28,1.0,1.0,52,0.00,,,0.00,Wunderground v.1.15,2013-01-17 04:20:00,
2013-01-16 20:25:00,51.7,34.1,30.22,North,11,1.0,1.0,51,0.00,,,0.00,Wunderground v.1.15,2013-01-17 04:25:00,
2013-01-16 20:30:00,51.6,34.0,30.22,NNE,29,1.0,1.0,51,0.00,,,0.00,Wunderground v.1.15,2013-01-17 04:30:00,
2013-01-16 20:35:00,51.6,34.0,30.21,SSW,195,0.0,1.0,51,0.00,,,0.00,Wunderground v.1.15,2013-01-17 04:35:00,
2013-01-16 20:40:00,51.5,34.0,30.21,NNE,30,0.0,1.0,51,0.00,,,0.00,Wunderground v.1.15,2013-01-17 04:40:00,
2013-01-16 20:45:00,51.8,33.7,30.22,NW,305,1.0,1.0,50,0.00,,,0.00,Wunderground v.1.15,2013-01-17 04:45:00,
2013-01-16 20:50:00,51.7,33.6,30.22,NNE,25,1.0,1.0,50,0.00,,,0.00,Wunderground v.1.15,2013-01-17 04:50:00,
2013-01-16 21:05:00,51.4,33.4,30.22,ESE,106,1.0,1.0,50,0.00,,,0.00,Wunderground v.1.15,2013-01-17 05:05:00,
2013-01-16 21:10:00,51.4,33.4,30.22,NNW,345,0.0,1.0,50,0.00,,,0.00,Wunderground v.1.15,2013-01-17 05:10:00,
2013-01-16 21:15:00,51.1,33.6,30.22,NNE,26,0.0,0.0,51,0.00,,,0.00,Wunderground v.1.15,2013-01-17 05:15:00,
2013-01-16 21:20:00,50.9,32.9,30.22,NNE,32,0.0,0.0,50,0.00,,,0.00,Wunderground v.1.15,2013-01-17 05:20:00,
2013-01-16 21:25:00,51.3,33.3,30.22,North,1,0.0,0.0,50,0.00,,,0.00,Wunderground v.1.15,2013-01-17 05:25:00,
2013-01-16 21:35:00,51.2,32.7,30.21,ENE,67,1.0,1.0,49,0.00,,,0.00,Wunderground v.1.15,2013-01-17 05:35:00,
2013-01-16 21:45:00,51.7,32.6,30.21,NNW,345,0.0,1.0,48,0.00,,,0.00,Wunderground v.1.15,2013-01-17 05:45:00,
2013-01-16 21:50:00,51.7,32.1,30.21,NNE,30,0.0,1.0,47,0.00,,,0.00,Wunderground v.1.15,2013-01-17 05:50:00,
2013-01-16 21:55:00,51.6,32.0,30.20,NNE,32,0.0,0.0,47,0.00,,,0.00,Wunderground v.1.15,2013-01-17 05:55:00,
2013-01-16 22:00:00,51.8,31.7,30.21,North,6,0.0,2.0,46,0.00,,,0.00,Wunderground v.1.15,2013-01-17 06:00:00,
2013-01-16 22:10:00,51.6,32.0,30.20,NNE,22,0.0,1.0,47,0.00,,,0.00,Wunderground v.1.15,2013-01-17 06:10:00,
2013-01-16 22:15:00,51.7,31.6,30.20,NE,46,0.0,1.0,46,0.00,,,0.00,Wunderground v.1.15,2013-01-17 06:15:00,
2013-01-16 22:25:00,51.3,31.7,30.20,NNW,331,0.0,0.0,47,0.00,,,0.00,Wunderground v.1.15,2013-01-17 06:25:00,
2013-01-16 22:30:00,51.1,31.0,30.20,NNE,12,0.0,0.0,46,0.00,,,0.00,Wunderground v.1.15,2013-01-17 06:30:00,
2013-01-16 22:35:00,51.2,31.1,30.20,NNW,338,0.0,0.0,46,0.00,,,0.00,Wunderground v.1.15,2013-01-17 06:35:00,
2013-01-16 22:40:00,51.5,30.8,30.20,North,8,0.0,0.0,45,0.00,,,0.00,Wunderground v.1.15,2013-01-17 06:40:00,
2013-01-16 22:50:00,51.2,30.6,30.20,ENE,63,0.0,0.0,45,0.00,,,0.00,Wunderground v.1.15,2013-01-17 06:50:00,
2013-01-16 22:55:00,51.2,30.6,30.20,NNE,14,0.0,0.0,45,0.00,,,0.00,Wunderground v.1.15,2013-01-17 06:55:00,
2013-01-16 23:00:00,51.5,30.8,30.20,NNW,331,0.0,0.0,45,0.00,,,0.00,Wunderground v.1.15,2013-01-17 07:00:00,
2013-01-16 23:10:00,50.9,30.8,30.20,NNE,32,0.0,0.0,46,0.00,,,0.00,Wunderground v.1.15,2013-01-17 07:10:00,
2013-01-16 23:15:00,50.5,30.5,30.20,NE,38,0.0,0.0,46,0.00,,,0.00,Wunderground v.1.15,2013-01-17 07:15:00,
2013-01-16 23:20:00,50.6,30.6,30.20,NNE,28,0.0,0.0,46,0.00,,,0.00,Wunderground v.1.15,2013-01-17 07:20:00,
2013-01-16 23:30:00,51.3,30.7,30.20,NNE,13,0.0,1.0,45,0.00,,,0.00,Wunderground v.1.15,2013-01-17 07:30:00,
2013-01-16 23:35:00,51.7,30.5,30.20,North,8,0.0,1.0,44,0.00,,,0.00,Wunderground v.1.15,2013-01-17 07:35:00,
2013-01-16 23:40:00,51.7,29.3,30.20,NNE,26,0.0,0.0,42,0.00,,,0.00,Wunderground v.1.15,2013-01-17 07:40:00,
2013-01-16 23:45:00,52.0,30.2,30.20,NNW,333,1.0,1.0,43,0.00,,,0.00,Wunderground v.1.15,2013-01-17 07:45:00,
2013-01-16 23:50:00,51.5,29.7,30.20,East,83,0.0,0.0,43,0.00,,,0.00,Wunderground v.1.15,2013-01-17 07:50:00,
2013-01-16 23:55:00,51.6,29.2,30.20,North,4,0.0,1.0,42,0.00,,,0.00,Wunderground v.1.15,2013-01-17 07:55:00,